period_start,C,m1,H,J0,J1,J2,J3,J4,J5,JA,JB,JC,JD,JJ,JK,JN,#
2017-08-13 00:01:23,0.30,10.38,0.00,24.51,28.47,31.43,14.07,65.85,1013.87,2024.98,1097.30,1504.46,1624.25,599.84,591.18,48.92,0000 0000 0000 0000 000000
2017-08-13 00:06:24,0.33,10.39,0.00,24.54,28.50,31.43,14.25,66.65,1013.96,2024.96,1096.46,1502.71,1622.36,600.82,592.21,48.97,0000 0000 0000 0000 000000
2017-08-13 00:11:25,0.29,10.41,0.00,24.56,28.52,31.46,14.36,66.98,1013.92,2024.82,1095.58,1500.90,1620.49,600.12,591.46,49.02,0000 0000 0000 0000 000000
2017-08-13 00:16:26,0.26,10.42,0.00,24.60,28.55,31.49,14.25,66.83,1013.79,2024.59,1094.66,1499.24,1618.60,600.83,591.93,49.07,0000 0000 0000 0000 000000
2017-08-13 00:21:28,0.26,10.44,0.00,24.63,28.57,31.52,13.99,65.95,1013.92,2024.19,1093.87,1497.31,1616.57,599.85,590.88,49.12,0000 0000 0000 0000 000000
2017-08-13 00:26:29,0.32,10.45,0.00,24.65,28.60,31.54,14.20,66.65,1014.06,2024.04,1092.98,1495.48,1614.54,600.53,591.86,49.17,0000 0000 0000 0000 000000
2017-08-13 00:31:30,0.35,10.47,0.00,24.68,28.62,31.56,14.17,66.30,1014.09,2024.00,1092.12,1493.48,1612.34,600.36,591.34,49.22,0000 0000 0000 0000 000000
2017-08-13 00:36:32,0.35,10.48,0.00,24.71,28.66,31.58,13.98,65.26,1014.02,2024.00,1091.38,1491.56,1610.21,599.08,590.11,49.27,0000 0000 0000 0000 000000
2017-08-13 00:41:33,0.34,10.50,0.00,24.75,28.68,31.57,13.98,65.26,1014.11,2024.00,1090.59,1489.68,1608.17,599.23,590.41,49.32,0000 0000 0000 0000 000000
2017-08-13 00:46:34,0.32,10.52,0.00,24.78,28.71,31.62,13.96,65.13,1014.12,2023.99,1089.64,1487.87,1606.19,600.47,591.49,49.37,0000 0000 0000 0000 000000
2017-08-13 00:51:36,0.32,10.54,0.00,24.81,28.73,31.69,14.30,66.96,1013.99,2023.97,1088.61,1486.19,1604.33,600.96,591.92,49.42,0000 0000 0000 0000 000000
2017-08-13 00:56:37,0.29,10.55,0.00,24.84,28.76,31.70,14.16,66.39,1013.92,2023.80,1087.61,1484.53,1602.56,600.42,591.19,49.47,0000 0000 0000 0000 000000
2017-08-13 01:01:38,0.18,10.56,0.00,24.87,28.79,31.70,14.23,66.12,1013.80,2023.36,1086.94,1482.89,1600.82,600.56,591.23,49.52,0000 0000 0000 0000 000000
2017-08-13 01:06:40,0.26,10.57,0.00,24.90,28.82,31.74,14.12,66.05,1013.97,2023.12,1086.27,1481.29,1599.14,600.04,591.01,49.57,0000 0000 0000 0000 000000
2017-08-13 01:11:41,0.31,10.59,0.00,24.94,28.85,31.78,14.01,65.34,1014.15,2023.02,1085.62,1479.62,1597.38,599.00,589.74,49.63,0000 0000 0000 0000 000000
2017-08-13 01:16:42,0.26,10.60,0.00,24.97,28.87,31.79,13.84,64.61,1014.17,2023.00,1084.86,1477.91,1595.58,598.58,589.37,49.68,0000 0000 0000 0000 000000
2017-08-13 01:21:44,0.30,10.62,0.00,25.00,28.91,31.82,14.18,65.64,1014.18,2023.00,1084.05,1476.27,1593.85,600.31,590.66,49.73,0000 0000 0000 0000 000000
2017-08-13 01:26:45,0.31,10.63,0.00,25.03,28.93,31.86,14.20,66.32,1014.18,2022.98,1083.64,1474.45,1591.90,600.48,591.06,49.78,0000 0000 0000 0000 000000
2017-08-13 01:31:47,0.26,10.65,0.00,25.06,28.96,31.87,14.10,65.38,1014.19,2022.96,1083.03,1472.76,1590.08,599.73,590.13,49.83,0000 0000 0000 0000 000000
2017-08-13 01:36:48,0.22,10.66,0.00,25.08,28.99,31.91,13.94,64.96,1014.23,2022.68,1082.38,1471.26,1588.32,599.13,589.67,49.88,0000 0000 0000 0000 000000
2017-08-13 01:41:49,0.21,10.67,0.00,25.12,29.02,31.94,13.96,64.90,1014.44,2022.26,1081.78,1469.77,1586.63,599.31,589.87,49.93,0000 0000 0000 0000 000000
2017-08-13 01:46:50,0.25,10.68,0.00,25.15,29.05,31.97,14.18,65.89,1014.63,2022.03,1081.04,1468.14,1584.89,600.64,591.25,49.98,0000 0000 0000 0000 000000
2017-08-13 01:51:52,0.29,10.69,0.00,25.17,29.08,32.01,14.10,65.67,1014.59,2022.00,1080.56,1466.56,1583.23,599.24,589.69,50.03,0000 0000 0000 0000 000000
2017-08-13 01:56:53,0.24,10.71,0.00,25.20,29.11,32.03,13.94,64.94,1014.65,2022.00,1080.00,1464.97,1581.51,599.38,589.90,50.08,0000 0000 0000 0000 000000
2017-08-13 02:01:54,0.29,10.72,0.00,25.22,29.14,32.05,14.10,65.53,1014.66,2022.00,1079.38,1463.50,1579.86,599.41,589.70,50.13,0000 0000 0000 0000 000000
2017-08-13 02:06:55,0.23,10.74,0.00,25.25,29.17,32.09,14.09,65.51,1014.66,2021.98,1078.95,1461.88,1578.26,599.20,589.63,50.18,0000 0000 0000 0000 000000
2017-08-13 02:11:56,0.28,10.75,0.00,25.26,29.20,32.12,14.03,65.35,1014.67,2021.93,1078.25,1460.43,1576.62,599.38,589.72,50.23,0000 0000 0000 0000 000000
2017-08-13 02:16:58,0.14,10.76,0.00,25.28,29.22,32.15,14.02,65.11,1014.68,2021.61,1077.99,1458.88,1575.02,599.65,590.10,50.28,0000 0000 0000 0000 000000
2017-08-13 02:22:00,0.23,10.77,0.00,25.31,29.25,32.16,14.18,65.70,1014.69,2021.19,1077.43,1457.38,1573.40,600.88,591.16,50.33,0000 0000 0000 0000 000000
2017-08-13 02:27:01,0.24,10.78,0.00,25.33,29.28,32.20,14.00,64.81,1014.71,2021.06,1077.03,1455.76,1571.68,600.30,590.50,50.38,0000 0000 0000 0000 000000
2017-08-13 02:32:03,0.20,10.79,0.00,25.36,29.31,32.25,13.95,64.80,1014.90,2021.00,1076.86,1454.27,1570.00,599.39,589.74,50.43,0000 0000 0000 0000 000000
2017-08-13 02:37:04,0.28,10.81,0.00,25.38,29.34,32.25,14.06,65.23,1015.06,2021.00,1076.08,1452.80,1568.56,599.77,590.15,50.48,0000 0000 0000 0000 000000
2017-08-13 02:42:05,0.24,10.82,0.00,25.40,29.36,32.27,14.19,65.63,1015.14,2020.99,1075.68,1451.43,1567.02,599.59,589.92,50.53,0000 0000 0000 0000 000000
2017-08-13 02:47:07,0.21,10.83,0.00,25.40,29.39,32.30,14.17,65.27,1015.15,2020.97,1074.96,1450.18,1565.60,600.68,590.79,50.58,0000 0000 0000 0000 000000
2017-08-13 02:52:08,0.24,10.84,0.00,25.35,29.41,32.35,14.10,64.77,1015.15,2020.79,1074.16,1448.85,1564.27,599.82,590.39,50.63,0000 0000 0000 0000 000000
2017-08-13 02:57:09,0.24,10.85,0.00,25.23,29.42,32.38,14.24,65.17,1015.16,2020.60,1073.47,1447.63,1562.91,600.18,590.92,50.68,0000 0000 0000 0000 000000
2017-08-13 03:02:10,0.19,10.86,0.00,25.16,29.42,32.38,14.18,64.90,1015.16,2020.57,1072.84,1446.51,1561.69,600.11,591.06,50.73,0000 0000 0000 0000 000000
2017-08-13 03:07:12,0.19,10.88,0.00,25.11,29.43,32.36,14.21,64.79,1015.16,2020.33,1072.06,1445.32,1560.44,600.51,591.43,50.78,0000 0000 0000 0000 000000
2017-08-13 03:12:14,0.24,10.89,0.00,25.05,29.42,32.32,14.15,64.56,1015.17,2020.26,1071.37,1444.11,1559.12,600.36,591.43,50.83,0000 0000 0000 0000 000000
2017-08-13 03:17:14,0.24,10.90,0.00,25.02,29.42,32.28,14.26,65.15,1015.19,2020.53,1070.86,1442.95,1557.86,600.74,591.67,50.88,0000 0000 0000 0000 000000
2017-08-13 03:22:16,0.27,10.91,0.00,24.99,29.42,32.21,14.07,64.27,1015.22,2020.73,1070.07,1441.81,1556.64,598.68,590.13,50.93,0000 0000 0000 0000 000000
2017-08-13 03:27:18,0.25,10.92,0.00,24.97,29.40,32.17,14.06,64.47,1015.39,2020.76,1069.68,1440.67,1555.44,599.33,590.71,50.98,0000 0000 0000 0000 000000
2017-08-13 03:32:19,0.20,10.94,0.00,24.94,29.39,32.11,14.03,64.17,1015.57,2020.90,1069.02,1439.51,1554.19,598.94,590.46,51.03,0000 0000 0000 0000 000000
2017-08-13 03:37:21,0.23,10.95,0.00,24.94,29.37,32.05,14.09,64.01,1015.63,2020.96,1068.65,1438.30,1552.87,599.02,590.73,51.08,0000 0000 0000 0000 000000
2017-08-13 03:42:22,0.20,10.96,0.00,24.93,29.35,32.02,14.05,64.06,1015.64,2020.98,1068.02,1437.13,1551.68,599.19,590.76,51.13,0000 0000 0000 0000 000000
2017-08-13 03:47:23,0.20,10.97,0.00,24.92,29.33,31.97,14.10,64.43,1015.64,2020.98,1067.91,1435.82,1550.33,599.63,591.41,51.18,0000 0000 0000 0000 000000
2017-08-13 03:52:25,0.25,10.98,0.00,24.92,29.32,31.91,14.20,64.96,1015.64,2020.99,1067.14,1434.64,1549.00,599.84,591.44,51.23,0000 0000 0000 0000 000000
2017-08-13 03:57:26,0.17,10.99,0.00,24.92,29.30,31.85,14.25,64.70,1015.64,2020.99,1066.99,1433.46,1547.76,600.50,592.11,51.28,0000 0000 0000 0000 000000
2017-08-13 04:02:27,0.23,11.00,0.00,24.93,29.28,31.81,14.11,64.40,1015.65,2020.99,1066.51,1432.25,1546.51,600.18,591.63,51.33,0000 0000 0000 0000 000000
2017-08-13 04:07:29,0.16,11.01,0.00,24.93,29.27,31.75,14.14,64.45,1015.65,2020.99,1066.01,1431.16,1545.37,600.25,591.61,51.38,0000 0000 0000 0000 000000
2017-08-13 04:12:30,0.17,11.02,0.00,24.95,29.25,31.72,14.11,64.64,1015.64,2021.00,1065.90,1429.96,1544.10,599.85,591.34,51.43,0000 0000 0000 0000 000000
2017-08-13 04:17:31,0.25,11.03,0.00,24.96,29.24,31.69,14.21,64.56,1015.64,2021.01,1065.19,1428.85,1542.92,600.18,591.96,51.48,0000 0000 0000 0000 000000
2017-08-13 04:22:32,0.17,11.04,0.00,24.97,29.22,31.66,14.03,64.03,1015.65,2021.03,1064.99,1427.79,1541.82,600.47,591.90,51.53,0000 0000 0000 0000 000000
2017-08-13 04:27:33,0.23,11.05,0.00,24.98,29.22,31.64,14.04,64.05,1015.64,2021.10,1064.69,1426.66,1540.66,600.81,592.36,51.58,0000 0000 0000 0000 000000
2017-08-13 04:32:35,0.24,11.06,0.00,25.01,29.20,31.62,14.03,63.86,1015.64,2021.25,1064.05,1425.54,1539.49,599.37,590.95,51.63,0000 0000 0000 0000 000000
2017-08-13 04:37:36,0.14,11.07,0.00,25.03,29.20,31.60,14.11,64.22,1015.65,2021.35,1063.99,1424.49,1538.35,599.48,590.97,51.68,0000 0000 0000 0000 000000
2017-08-13 04:42:38,0.16,11.08,0.00,25.04,29.20,31.59,14.09,64.77,1015.66,2021.43,1063.85,1423.34,1537.13,599.83,591.41,51.73,0000 0000 0000 0000 000000
2017-08-13 04:47:39,0.21,11.09,0.00,25.07,29.20,31.57,14.03,63.86,1015.70,2021.31,1063.20,1422.23,1535.98,599.55,591.00,51.78,0000 0000 0000 0000 000000
2017-08-13 04:52:40,0.16,11.10,0.00,25.09,29.20,31.59,14.15,64.45,1015.84,2021.38,1063.01,1421.20,1535.02,600.05,591.35,51.83,0000 0000 0000 0000 000000
2017-08-13 04:57:41,0.14,11.11,0.00,25.11,29.19,31.58,14.14,64.89,1015.76,2021.47,1063.00,1420.11,1534.00,599.77,590.91,51.88,0000 0000 0000 0000 000000
2017-08-13 05:02:42,0.20,11.12,0.00,25.13,29.19,31.57,14.02,64.17,1015.67,2021.64,1062.74,1419.18,1532.98,599.91,590.94,51.93,0000 0000 0000 0000 000000
2017-08-13 05:07:43,0.19,11.13,0.00,25.16,29.19,31.57,14.08,64.75,1015.66,2021.51,1062.05,1418.17,1531.94,600.87,592.24,51.98,0000 0000 0000 0000 000000
2017-08-13 05:12:45,0.10,11.13,0.00,25.17,29.19,31.57,14.13,64.76,1015.74,2021.35,1061.90,1417.31,1530.95,600.96,592.12,52.03,0000 0000 0000 0000 000000
2017-08-13 05:17:46,0.24,11.14,0.00,25.20,29.19,31.57,14.00,63.74,1015.89,2021.31,1061.15,1416.27,1529.96,599.98,591.07,52.08,0000 0000 0000 0000 000000
2017-08-13 05:22:47,0.14,11.15,0.00,25.21,29.19,31.58,14.03,63.88,1016.00,2021.36,1060.89,1415.47,1529.00,599.53,591.00,52.13,0000 0000 0000 0000 000000
2017-08-13 05:27:49,0.25,11.16,0.00,25.23,29.20,31.58,13.95,63.92,1016.05,2021.43,1060.13,1414.50,1528.03,599.93,591.21,52.18,0000 0000 0000 0000 000000
2017-08-13 05:32:50,0.12,11.17,0.00,25.26,29.20,31.58,14.17,64.36,1016.09,2021.47,1060.00,1413.57,1527.02,600.24,591.48,52.23,0000 0000 0000 0000 000000
2017-08-13 05:37:52,0.13,11.18,0.00,25.29,29.20,31.58,14.19,64.71,1016.10,2021.33,1059.98,1412.55,1525.95,600.62,591.61,52.28,0000 0000 0000 0000 000000
2017-08-13 05:42:53,0.20,11.19,0.00,25.32,29.20,31.59,14.03,63.84,1016.08,2021.29,1059.72,1411.51,1524.80,598.97,590.08,52.34,0000 0000 0000 0000 000000
2017-08-13 05:47:54,0.20,11.20,0.00,25.35,29.21,31.58,14.05,63.98,1016.11,2021.19,1059.18,1410.31,1523.59,599.64,590.76,52.39,0000 0000 0000 0000 000000
2017-08-13 05:52:55,0.16,11.21,0.00,25.38,29.22,31.59,14.03,63.92,1016.13,2021.23,1059.01,1409.17,1522.43,599.34,590.42,52.44,0000 0000 0000 0000 000000
2017-08-13 05:57:57,0.14,11.22,0.00,25.42,29.23,31.61,14.02,64.26,1016.14,2021.13,1058.89,1408.11,1521.23,600.17,591.08,52.49,0000 0000 0000 0000 000000
2017-08-13 06:02:59,0.19,11.23,0.00,25.48,29.25,31.60,14.06,63.95,1016.15,2021.10,1058.40,1407.15,1520.20,599.85,590.67,52.54,0000 0000 0000 0000 000000
2017-08-13 06:08:00,0.17,11.23,0.00,25.52,29.26,31.61,14.11,64.37,1016.21,2021.03,1057.96,1406.13,1519.09,599.98,590.77,52.59,0000 0000 0000 0000 000000
2017-08-13 06:13:01,0.22,11.25,0.00,25.56,29.28,31.63,14.07,64.11,1016.41,2021.01,1057.19,1405.26,1518.02,600.50,591.28,52.64,0000 0000 0000 0000 000000
2017-08-13 06:18:03,0.16,11.25,0.00,25.61,29.30,31.64,14.09,63.96,1016.53,2021.00,1056.90,1404.25,1517.00,600.53,591.27,52.69,0000 0000 0000 0000 000000
2017-08-13 06:23:04,0.22,11.26,0.00,25.65,29.32,31.65,13.99,64.05,1016.50,2021.00,1056.29,1403.25,1515.88,599.29,589.95,52.74,0000 0000 0000 0000 000000
2017-08-13 06:28:06,0.16,11.27,0.00,25.70,29.34,31.67,14.03,63.91,1016.58,2020.99,1056.03,1402.17,1514.73,599.99,590.62,52.79,0000 0000 0000 0000 000000
2017-08-13 06:33:07,0.21,11.28,0.00,25.74,29.36,31.70,14.09,64.24,1016.62,2020.96,1055.42,1401.26,1513.84,599.70,590.28,52.84,0000 0000 0000 0000 000000
2017-08-13 06:38:09,0.23,11.29,0.00,25.78,29.39,31.73,14.03,64.07,1016.63,2020.91,1054.39,1400.48,1512.75,599.96,590.46,52.89,0000 0000 0000 0000 000000
2017-08-13 06:43:10,0.17,11.30,0.00,25.81,29.41,31.76,14.08,64.36,1016.63,2020.61,1053.59,1399.48,1511.67,600.74,591.16,52.94,0000 0000 0000 0000 000000
2017-08-13 06:48:11,0.21,11.31,0.00,25.86,29.44,31.78,14.04,64.32,1016.73,2020.30,1052.66,1398.53,1510.60,600.39,590.79,52.99,0000 0000 0000 0000 000000
2017-08-13 06:53:12,0.20,11.32,0.00,25.90,29.46,31.80,13.94,63.56,1017.00,2020.03,1051.71,1397.55,1509.55,599.60,590.09,53.04,0000 0000 0000 0000 000000
2017-08-13 06:58:14,0.23,11.33,0.00,25.94,29.49,31.83,14.10,64.17,1017.10,2020.00,1050.79,1396.55,1508.44,600.73,591.22,53.09,0000 0000 0000 0000 000000
2017-08-13 07:03:15,0.20,11.35,0.00,25.97,29.52,31.87,13.98,63.91,1017.10,2020.00,1049.94,1395.69,1507.43,600.51,590.80,53.14,0000 0000 0000 0000 000000
2017-08-13 07:08:16,0.22,11.36,0.00,26.01,29.55,31.89,14.06,64.06,1017.11,2020.00,1049.09,1394.76,1506.44,600.34,590.66,53.19,0000 0000 0000 0000 000000
2017-08-13 07:13:17,0.21,11.37,0.00,26.05,29.58,31.92,13.99,63.71,1017.14,2019.98,1048.49,1393.85,1505.28,599.15,589.50,53.24,0000 0000 0000 0000 000000
2017-08-13 07:18:19,0.20,11.38,0.00,26.09,29.61,31.96,14.03,64.09,1017.15,2019.93,1047.55,1393.05,1504.45,599.62,589.92,53.29,0000 0000 0000 0000 000000
2017-08-13 07:23:19,0.07,11.38,0.00,26.12,29.64,31.98,14.00,63.97,1017.18,2019.52,1046.90,1392.22,1503.71,600.12,590.40,53.34,0000 0000 0000 0000 000000
2017-08-13 07:28:21,0.18,11.39,0.00,26.16,29.67,32.01,14.04,63.99,1017.24,2019.04,1046.15,1391.44,1502.59,600.55,590.64,53.39,0000 0000 0000 0000 000000
2017-08-13 07:33:23,0.16,11.40,0.00,26.20,29.70,32.04,14.04,64.19,1017.45,2019.00,1045.50,1390.78,1501.85,600.28,590.31,53.44,0000 0000 0000 0000 000000
2017-08-13 07:38:24,0.17,11.41,0.00,26.24,29.73,32.08,14.01,64.16,1017.55,2019.00,1044.69,1390.01,1501.01,600.27,590.39,53.49,0000 0000 0000 0000 000000
2017-08-13 07:43:25,0.21,11.42,0.00,26.29,29.76,32.11,14.00,64.04,1017.59,2019.00,1043.90,1389.18,1500.17,600.26,590.31,53.54,0000 0000 0000 0000 000000
2017-08-13 07:48:27,0.18,11.43,0.00,26.36,29.79,32.13,13.92,64.05,1017.59,2018.92,1043.11,1388.50,1499.45,599.85,589.77,53.59,0000 0000 0000 0000 000000
2017-08-13 07:53:28,0.11,11.43,0.00,26.42,29.82,32.18,14.04,64.20,1017.59,2018.68,1042.59,1387.85,1498.60,600.36,590.21,53.64,0000 0000 0000 0000 000000
2017-08-13 07:58:29,0.07,11.44,0.00,26.48,29.86,32.20,14.00,64.04,1017.59,2018.19,1041.95,1387.06,1497.88,600.02,589.77,53.69,0000 0000 0000 0000 000000
2017-08-13 08:03:30,0.20,11.45,0.00,26.55,29.90,32.24,14.00,63.82,1017.59,2018.04,1041.22,1386.35,1497.06,599.61,589.16,53.74,0000 0000 0000 0000 000000
2017-08-13 08:08:32,0.17,11.45,0.00,26.62,29.93,32.28,13.98,63.71,1017.60,2018.00,1040.55,1385.72,1496.29,599.44,588.86,53.79,0000 0000 0000 0000 000000
2017-08-13 08:13:33,0.13,11.46,0.00,26.69,29.97,32.33,14.03,63.80,1017.66,2018.00,1040.01,1384.95,1495.57,600.31,589.61,53.84,0000 0000 0000 0000 000000
2017-08-13 08:18:34,0.19,11.47,0.00,26.74,30.01,32.37,14.10,64.32,1018.01,2017.97,1039.49,1384.13,1494.82,599.72,589.18,53.89,0000 0000 0000 0000 000000
2017-08-13 08:23:35,0.06,11.48,0.00,26.78,30.06,32.41,14.03,64.30,1018.08,2017.70,1038.94,1383.69,1494.04,599.48,588.69,53.94,0000 0000 0000 0000 000000
2017-08-13 08:28:37,0.09,11.48,0.00,26.84,30.10,32.46,14.13,64.72,1018.08,2017.13,1038.17,1383.00,1493.28,601.27,590.48,53.99,0000 0000 0000 0000 000000
2017-08-13 08:33:38,0.13,11.49,0.00,26.88,30.14,32.50,13.94,63.68,1018.11,2017.00,1037.92,1382.23,1492.68,599.83,589.03,54.04,0000 0000 0000 0000 000000
2017-08-13 08:38:39,0.13,11.50,0.00,26.94,30.18,32.55,14.01,63.73,1018.42,2017.00,1037.15,1381.81,1492.00,599.72,588.98,54.09,0000 0000 0000 0000 000000
2017-08-13 08:43:40,0.14,11.50,0.00,26.99,30.22,32.59,13.99,63.97,1018.57,2016.95,1036.79,1381.04,1491.16,600.35,589.59,54.14,0000 0000 0000 0000 000000
2017-08-13 08:48:42,0.10,11.51,0.00,27.04,30.27,32.63,13.95,63.81,1018.57,2016.53,1036.04,1380.30,1490.57,599.92,589.06,54.19,0000 0000 0000 0000 000000
2017-08-13 08:53:43,0.09,11.51,0.00,27.10,30.31,32.67,13.96,63.54,1018.57,2016.09,1035.43,1379.82,1489.93,599.64,588.66,54.24,0000 0000 0000 0000 000000
2017-08-13 08:58:44,0.14,11.52,0.00,27.15,30.36,32.73,14.11,64.16,1018.57,2016.00,1034.87,1379.04,1489.13,600.88,589.84,54.29,0000 0000 0000 0000 000000
2017-08-13 09:03:46,0.19,11.53,0.00,27.20,30.41,32.77,13.93,63.77,1018.57,2016.00,1034.14,1378.46,1488.56,600.23,589.17,54.34,0000 0000 0000 0000 000000
2017-08-13 09:08:47,0.12,11.53,0.00,27.24,30.45,32.82,13.91,63.82,1018.57,2015.98,1033.71,1377.85,1487.84,600.43,589.14,54.39,0000 0000 0000 0000 000000
2017-08-13 09:13:48,0.10,11.54,0.00,27.29,30.50,32.86,13.94,63.51,1018.65,2015.69,1033.02,1377.08,1487.05,598.93,587.66,54.45,0000 0000 0000 0000 000000
2017-08-13 09:18:49,0.14,11.54,0.00,27.32,30.54,32.91,14.02,63.88,1018.88,2015.11,1032.36,1376.44,1486.32,600.34,589.02,54.50,0000 0000 0000 0000 000000
2017-08-13 09:23:50,0.13,11.55,0.00,27.37,30.59,32.96,14.05,63.91,1019.00,2015.01,1031.75,1375.77,1485.50,599.80,588.48,54.55,0000 0000 0000 0000 000000
2017-08-13 09:28:52,0.15,11.56,0.00,27.43,30.63,32.99,13.91,63.87,1019.06,2014.97,1031.05,1375.00,1484.82,600.00,588.67,54.60,0000 0000 0000 0000 000000
2017-08-13 09:33:53,0.05,11.57,0.00,27.47,30.68,33.03,14.02,64.10,1019.06,2014.56,1030.90,1374.26,1484.04,600.44,588.92,54.65,0000 0000 0000 0000 000000
2017-08-13 09:38:55,0.06,11.57,0.00,27.53,30.72,33.08,14.00,64.04,1019.06,2014.10,1030.12,1373.99,1483.68,600.36,588.84,54.70,0000 0000 0000 0000 000000
2017-08-13 09:43:56,0.11,11.57,0.00,27.59,30.76,33.13,13.93,63.75,1019.06,2014.00,1029.83,1373.41,1482.89,600.24,588.48,54.75,0000 0000 0000 0000 000000
2017-08-13 09:48:58,2.55,11.66,0.00,27.65,30.81,33.17,13.91,63.76,1019.06,2013.99,1022.40,1364.25,1473.41,599.53,587.77,54.80,0000 0000 0000 0000 000000
2017-08-13 09:53:59,0.16,11.71,0.00,27.71,30.85,33.22,13.92,63.88,1019.07,2013.81,1020.30,1362.02,1471.03,599.73,587.64,54.85,0000 0000 0000 0000 000000
2017-08-13 09:59:00,0.03,11.71,0.00,27.75,30.89,33.27,14.00,64.17,1019.08,2013.35,1020.00,1361.60,1470.68,600.92,589.00,54.90,0000 0000 0000 0000 000000
2017-08-13 10:04:02,0.11,11.72,0.00,27.80,30.93,33.31,13.88,63.42,1019.07,2013.03,1019.47,1361.02,1470.03,599.68,587.55,54.95,0000 0000 0000 0000 000000
2017-08-13 10:09:03,0.14,11.72,0.00,27.84,30.97,33.36,13.99,64.18,1019.08,2013.00,1019.01,1360.49,1469.45,600.64,588.47,55.00,0000 0000 0000 0000 000000
2017-08-13 10:14:04,0.03,11.73,0.00,27.90,31.02,33.40,14.06,64.27,1019.27,2012.97,1018.93,1360.01,1469.00,600.89,588.78,55.05,0000 0000 0000 0000 000000
2017-08-13 10:19:05,0.09,11.73,0.00,27.96,31.06,33.45,13.94,64.11,1019.54,2012.68,1018.19,1359.85,1468.60,600.61,588.55,55.10,0000 0000 0000 0000 000000
2017-08-13 10:24:07,0.01,11.73,0.00,28.02,31.10,33.50,13.82,63.19,1019.55,2012.17,1017.97,1359.14,1468.02,599.40,587.04,55.15,0000 0000 0000 0000 000000
2017-08-13 10:29:08,0.09,11.74,0.00,28.07,31.14,33.56,14.03,63.80,1019.55,2012.02,1017.51,1358.96,1467.79,600.25,587.93,55.20,0000 0000 0000 0000 000000
2017-08-13 10:34:09,0.15,11.75,0.00,28.11,31.19,33.60,13.93,63.73,1019.55,2012.00,1017.01,1358.19,1467.04,600.14,587.84,55.25,0000 0000 0000 0000 000000
2017-08-13 10:39:11,0.01,11.75,0.00,28.17,31.23,33.66,13.97,63.73,1019.55,2011.97,1016.96,1358.00,1466.89,599.90,587.64,55.30,0000 0000 0000 0000 000000
2017-08-13 10:44:12,0.08,11.75,0.00,28.22,31.28,33.71,13.93,63.79,1019.56,2011.70,1016.44,1357.81,1466.17,599.99,587.39,55.35,0000 0000 0000 0000 000000
2017-08-13 10:49:13,0.01,11.75,0.00,28.28,31.32,33.76,13.87,63.63,1019.57,2011.16,1016.02,1357.15,1465.99,599.53,587.06,55.40,0000 0000 0000 0000 000000
2017-08-13 10:54:15,0.03,11.75,0.00,28.35,31.36,33.82,14.02,63.75,1019.57,2011.01,1016.00,1357.00,1465.59,599.92,587.28,55.45,0000 0000 0000 0000 000000
2017-08-13 10:59:16,0.08,11.76,0.00,28.43,31.40,33.88,13.96,63.62,1019.57,2010.99,1015.86,1356.65,1465.03,600.59,587.75,55.50,0000 0000 0000 0000 000000
2017-08-13 11:04:18,0.11,11.76,0.00,28.55,31.44,33.94,13.98,63.71,1019.70,2010.91,1015.20,1356.03,1464.88,600.21,587.03,55.55,0000 0000 0000 0000 000000
2017-08-13 11:09:19,-0.03,11.76,0.00,28.65,31.49,34.00,13.94,63.69,1019.73,2010.44,1014.99,1355.98,1464.14,600.65,587.30,55.60,0000 0000 0000 0000 000000
2017-08-13 11:14:20,0.09,11.76,0.00,28.72,31.53,34.05,13.97,64.01,1019.80,2010.09,1014.63,1355.50,1464.00,600.43,587.15,55.65,0000 0000 0000 0000 000000
2017-08-13 11:19:21,0.09,11.77,0.00,28.72,31.57,34.08,13.88,63.49,1020.01,2010.00,1014.03,1355.01,1463.55,600.10,586.75,55.70,0000 0000 0000 0000 000000
2017-08-13 11:24:22,0.02,11.77,0.00,28.64,31.61,34.11,13.85,63.61,1020.03,2009.99,1013.99,1354.94,1463.03,600.46,587.37,55.75,0000 0000 0000 0000 000000
2017-08-13 11:29:24,0.86,11.79,0.00,28.56,31.65,34.14,13.81,63.69,1020.03,2009.93,1012.02,1352.91,1461.14,599.51,586.54,55.80,0000 0000 0000 0000 000000
2017-08-13 11:34:25,0.27,11.83,0.00,28.50,31.68,34.17,13.96,63.72,1020.03,2009.61,1009.50,1350.62,1458.61,600.20,587.34,55.85,0000 0000 0000 0000 000000
2017-08-13 11:39:26,0.01,11.83,0.00,28.44,31.71,34.20,13.94,63.88,1020.03,2009.07,1009.01,1350.02,1458.02,600.29,587.36,55.90,0000 0000 0000 0000 000000
2017-08-13 11:44:27,0.03,11.83,0.00,28.38,31.75,34.21,13.85,63.40,1020.03,2009.00,1008.85,1349.99,1457.95,599.67,587.00,55.95,0000 0000 0000 0000 000000
2017-08-13 11:49:29,0.17,11.84,0.00,28.34,31.77,34.23,13.94,63.71,1020.03,2009.00,1008.18,1349.63,1457.27,600.46,587.90,56.00,0000 0000 0000 0000 000000
2017-08-13 11:54:30,0.05,11.84,0.00,28.31,31.80,34.25,13.99,64.09,1020.02,2009.00,1007.97,1349.03,1457.00,599.84,587.22,56.05,0000 0000 0000 0000 000000
2017-08-13 11:59:31,0.11,11.85,0.00,28.27,31.82,34.26,14.04,63.98,1020.02,2008.99,1007.39,1348.98,1456.79,599.78,587.40,56.10,0000 0000 0000 0000 000000
2017-08-13 12:04:32,0.08,11.85,0.00,28.24,31.84,34.28,14.05,64.21,1020.01,2008.89,1007.01,1348.65,1456.07,599.98,587.64,56.15,0000 0000 0000 0000 000000
2017-08-13 12:09:34,0.06,11.85,0.00,28.21,31.85,34.29,14.03,64.28,1019.97,2008.77,1006.76,1348.07,1456.00,600.80,588.33,56.20,0000 0000 0000 0000 000000
2017-08-13 12:14:35,0.03,11.86,0.00,28.18,31.87,34.31,13.91,63.70,1019.94,2008.40,1006.04,1348.00,1455.76,600.21,587.88,56.25,0000 0000 0000 0000 000000
2017-08-13 12:19:37,0.03,11.86,0.00,28.17,31.88,34.32,13.89,63.70,1019.92,2008.13,1005.98,1347.79,1455.06,599.69,587.53,56.30,0000 0000 0000 0000 000000
2017-08-13 12:24:37,0.14,11.86,0.00,28.15,31.90,34.33,14.00,64.06,1019.94,2008.04,1005.39,1347.11,1454.97,600.38,588.38,56.35,0000 0000 0000 0000 000000
2017-08-13 12:29:39,0.05,11.87,0.00,28.14,31.90,34.33,13.96,63.92,1020.00,2008.01,1005.00,1347.00,1454.49,600.41,588.22,56.40,0000 0000 0000 0000 000000
2017-08-13 12:34:40,0.11,11.87,0.00,28.12,31.92,34.34,14.03,64.30,1020.03,2008.00,1004.45,1346.92,1454.02,599.12,587.17,56.45,0000 0000 0000 0000 000000
2017-08-13 12:39:41,0.09,11.88,0.00,28.12,31.92,34.35,14.00,64.06,1020.03,2008.00,1004.01,1346.24,1453.94,600.22,588.21,56.51,0000 0000 0000 0000 000000
2017-08-13 12:44:43,0.09,11.88,0.00,28.10,31.93,34.36,14.01,64.01,1020.04,2008.00,1003.80,1346.00,1453.20,600.24,588.01,56.56,0000 0000 0000 0000 000000
2017-08-13 12:49:44,0.09,11.89,0.00,28.10,31.95,34.36,14.06,64.34,1020.03,2008.00,1003.08,1345.86,1453.00,599.98,587.87,56.61,0000 0000 0000 0000 000000